User: anonymous   Login
Location: Drignac
(45.1667°N, 2.0333°E)
Time: 02:39:43
(UTC+00:00)
Language:

STARLINK-1115 - Orbit

View from above orbital plane
View from above orbital plane
View from above satellite
View from above satellite

Ground track
Ground track

The orbit data is extracted from the following two-line orbital elements,

1 44973U 20001BM  20192.58334491  .00037722  00000-0  25939-2 0  9992
2 44973  52.9953 230.7190 0001305  98.0947  54.5690 15.05585244 28705
Epoch (UTC): 10 July 2020 14:00:01
Eccentricity: 0.0001305
inclination: 52.9953°
perigee height: 549 km
apogee height: 550 km
right ascension of ascending node: 230.7190°
argument of perigee: 98.0947°
revolutions per day: 15.05585244
mean anomaly at epoch: 54.5690°
orbit number at epoch: 2870

The dashed part of the orbit path shows where the satellite is in the earth's shadow,  

DLR